Location: Newark
(35.5300°N, 14.3000°E)
Time: 07:43:16
(UTC+00:00)

Transit 4A - Pass Details

Date: 25 November 2019
Orbit: 872 x 973 km, 66.8° (Epoch: 27 January)

Event Time Altitude Azimuth Distance (km) Brightness Sun altitude
Rises 17:48:26 0° 169° (S) 3,634 11.0 -23.5°
Reaches altitude 10° 17:51:32 10° 155° (SSE) 2,680 10.1 -24.1°
Enters shadow 17:52:16 13° 150° (SSE) 2,485 9.9 -24.3°
